{"data":{"norad_id":52562,"epoch":"2026-09-19T14:30:18.647136Z","epoch_age_seconds":140695,"freshness":"FRESH","line1":"1 52562U 22051AF  26262.60438249  .00000517  00000+0  26450-4 0  9997","line2":"2 52562  53.1621 311.9455 0001426  79.4447 280.6716 15.34385574241086","mean_motion":15.34385574,"eccentricity":0.0001426,"inclination_deg":53.1621,"raan_deg":311.9455,"arg_perigee_deg":79.4447,"mean_anomaly_deg":280.6716,"bstar":2.645e-5,"rev_number":24108,"period_min":93.848640420025,"perigee_km":461.7706077226,"apogee_km":463.72162758776,"semimajor_km":6840.8831176552,"source":"CELESTRAK","updated_at":"2026-09-20T09:00:40.062972Z"}}